Time,TemperatureF,DewpointF,PressureIn,WindDirection,WindDirectionDegrees,WindSpeedMPH,WindSpeedGustMPH,Humidity,HourlyPrecipIn,Conditions,Clouds,dailyrainin,SolarRadiationWatts/m^2,SoftwareType,DateUTC
2013-07-02 00:01:00,68.0,61.0,-100.00,ENE,70,0.0,3.0,78,0.00,,,-99.99,0.000000,,2013-07-02 05:01:00,
2013-07-02 00:11:00,68.0,61.0,-100.00,ENE,70,0.0,3.0,78,0.00,,,-99.99,0.000000,,2013-07-02 05:11:00,
2013-07-02 00:22:00,68.0,61.0,-100.00,ENE,70,0.0,3.0,78,0.00,,,-99.99,0.000000,,2013-07-02 05:22:00,
2013-07-02 00:32:00,68.0,62.0,-100.00,North,1,0.0,0.0,80,0.00,,,-99.99,0.000000,,2013-07-02 05:32:00,
2013-07-02 00:53:00,68.0,62.0,-100.00,North,1,0.0,0.0,80,0.00,,,-99.99,0.000000,,2013-07-02 05:53:00,
2013-07-02 01:01:00,68.0,62.0,-100.00,North,1,0.0,0.0,80,0.00,,,-99.99,0.000000,,2013-07-02 06:01:00,
2013-07-02 01:12:00,68.0,62.0,-100.00,North,1,0.0,0.0,80,0.00,,,-99.99,0.000000,,2013-07-02 06:12:00,
2013-07-02 01:23:00,68.0,62.0,-100.00,North,1,0.0,0.0,80,0.00,,,-99.99,0.000000,,2013-07-02 06:23:00,
2013-07-02 01:32:00,65.0,61.0,-100.00,South,176,0.0,0.0,86,0.00,,,0.00,0.000000,,2013-07-02 06:32:00,
2013-07-02 01:53:00,65.0,61.0,-100.00,South,176,0.0,0.0,86,0.00,,,0.00,0.000000,,2013-07-02 06:53:00,
2013-07-02 02:01:00,65.0,61.0,-100.00,South,176,0.0,0.0,86,0.00,,,0.00,0.000000,,2013-07-02 07:01:00,
2013-07-02 02:12:00,65.0,61.0,-100.00,South,176,0.0,0.0,86,0.00,,,0.00,0.000000,,2013-07-02 07:12:00,
2013-07-02 02:22:00,65.0,61.0,-100.00,South,176,0.0,0.0,86,0.00,,,0.00,0.000000,,2013-07-02 07:22:00,
2013-07-02 02:32:00,65.0,61.0,-100.00,WNW,290,0.0,0.0,88,0.00,,,0.00,0.000000,,2013-07-02 07:32:00,
2013-07-02 03:02:00,65.0,61.0,-100.00,WNW,290,0.0,0.0,88,0.00,,,0.00,0.000000,,2013-07-02 08:02:00,
2013-07-02 03:12:00,65.0,61.0,-100.00,WNW,290,0.0,0.0,88,0.00,,,0.00,0.000000,,2013-07-02 08:12:00,
2013-07-02 03:22:00,65.0,61.0,-100.00,WNW,290,0.0,0.0,88,0.00,,,0.00,0.000000,,2013-07-02 08:22:00,
2013-07-02 03:32:00,64.0,61.0,-100.00,NW,322,0.0,0.0,89,0.00,,,0.00,0.000000,,2013-07-02 08:32:00,
2013-07-02 03:53:00,64.0,61.0,-100.00,NW,322,0.0,0.0,89,0.00,,,0.00,0.000000,,2013-07-02 08:53:00,
2013-07-02 04:02:00,64.0,61.0,-100.00,NW,322,0.0,0.0,89,0.00,,,0.00,0.000000,,2013-07-02 09:02:00,
2013-07-02 04:11:00,64.0,61.0,-100.00,NW,322,0.0,0.0,89,0.00,,,0.00,0.000000,,2013-07-02 09:11:00,
2013-07-02 04:23:00,64.0,61.0,-100.00,NW,322,0.0,0.0,89,0.00,,,0.00,0.000000,,2013-07-02 09:23:00,
2013-07-02 04:32:00,64.0,61.0,-100.00,NNE,30,0.0,0.0,90,0.00,,,0.00,0.000000,,2013-07-02 09:32:00,
2013-07-02 05:01:00,64.0,61.0,-100.00,NNE,30,0.0,0.0,90,0.00,,,0.00,0.000000,,2013-07-02 10:01:00,
2013-07-02 05:11:00,64.0,61.0,-100.00,NNE,30,0.0,0.0,90,0.00,,,0.00,0.000000,,2013-07-02 10:11:00,
2013-07-02 05:22:00,64.0,61.0,-100.00,NNE,30,0.0,0.0,90,0.00,,,0.00,0.000000,,2013-07-02 10:22:00,
2013-07-02 05:32:00,65.0,62.0,-100.00,ENE,64,1.0,3.0,89,0.00,,,0.00,0.000000,,2013-07-02 10:32:00,
2013-07-02 06:01:00,65.0,62.0,-100.00,ENE,64,1.0,3.0,89,0.00,,,0.00,0.000000,,2013-07-02 11:01:00,
2013-07-02 06:11:00,65.0,62.0,-100.00,ENE,64,1.0,3.0,89,0.00,,,0.00,0.000000,,2013-07-02 11:11:00,
2013-07-02 06:22:00,65.0,62.0,-100.00,ENE,64,1.0,3.0,89,0.00,,,0.00,0.000000,,2013-07-02 11:22:00,
2013-07-02 06:32:00,65.0,62.0,-100.00,ENE,66,0.0,2.0,89,0.00,,,0.00,4.000000,,2013-07-02 11:32:00,
2013-07-02 06:52:00,65.0,62.0,-100.00,ENE,66,0.0,2.0,89,0.00,,,0.00,4.000000,,2013-07-02 11:52:00,
2013-07-02 07:01:00,65.0,62.0,-100.00,ENE,66,0.0,2.0,89,0.00,,,0.00,4.000000,,2013-07-02 12:01:00,
2013-07-02 07:11:00,65.0,62.0,-100.00,ENE,66,0.0,2.0,89,0.00,,,0.00,4.000000,,2013-07-02 12:11:00,
2013-07-02 07:23:00,65.0,62.0,-100.00,ENE,66,0.0,2.0,89,0.00,,,0.00,4.000000,,2013-07-02 12:23:00,
2013-07-02 07:32:00,70.0,63.0,-100.00,NE,54,3.0,5.0,79,0.00,,,0.00,131.000000,,2013-07-02 12:32:00,
2013-07-02 07:52:00,70.0,63.0,-100.00,NE,54,3.0,5.0,79,0.00,,,0.00,131.000000,,2013-07-02 12:52:00,
2013-07-02 08:01:00,70.0,63.0,-100.00,NE,54,3.0,5.0,79,0.00,,,0.00,131.000000,,2013-07-02 13:01:00,
2013-07-02 08:11:00,70.0,63.0,-100.00,NE,54,3.0,5.0,79,0.00,,,0.00,131.000000,,2013-07-02 13:11:00,
2013-07-02 08:22:00,70.0,63.0,-100.00,NE,54,3.0,5.0,79,0.00,,,0.00,131.000000,,2013-07-02 13:22:00,
2013-07-02 08:32:00,75.0,63.0,-100.00,NE,48,4.0,8.0,67,0.00,,,0.00,368.000000,,2013-07-02 13:32:00,
2013-07-02 09:02:00,75.0,63.0,-100.00,NE,48,4.0,8.0,67,0.00,,,0.00,368.000000,,2013-07-02 14:02:00,
2013-07-02 09:11:00,75.0,63.0,-100.00,NE,48,4.0,8.0,67,0.00,,,0.00,368.000000,,2013-07-02 14:11:00,
2013-07-02 09:22:00,75.0,63.0,-100.00,NE,48,4.0,8.0,67,0.00,,,0.00,368.000000,,2013-07-02 14:22:00,
2013-07-02 09:32:00,80.0,62.0,-100.00,NE,51,4.0,7.0,55,0.00,,,0.00,598.000000,,2013-07-02 14:32:00,
2013-07-02 09:53:00,80.0,62.0,-100.00,NE,51,4.0,7.0,55,0.00,,,0.00,598.000000,,2013-07-02 14:53:00,
2013-07-02 10:02:00,80.0,62.0,-100.00,NE,51,4.0,7.0,55,0.00,,,0.00,598.000000,,2013-07-02 15:02:00,
2013-07-02 10:11:00,80.0,62.0,-100.00,NE,51,4.0,7.0,55,0.00,,,0.00,598.000000,,2013-07-02 15:11:00,
2013-07-02 10:22:00,80.0,62.0,-100.00,NE,51,4.0,7.0,55,0.00,,,0.00,598.000000,,2013-07-02 15:22:00,
2013-07-02 10:32:00,83.0,61.0,-100.00,North,0,4.0,8.0,47,0.00,,,0.00,787.000000,,2013-07-02 15:32:00,
2013-07-02 11:01:00,83.0,61.0,-100.00,North,0,4.0,8.0,47,0.00,,,0.00,787.000000,,2013-07-02 16:01:00,
2013-07-02 11:12:00,83.0,61.0,-100.00,North,0,4.0,8.0,47,0.00,,,0.00,787.000000,,2013-07-02 16:12:00,
2013-07-02 11:22:00,83.0,61.0,-100.00,North,0,4.0,8.0,47,0.00,,,0.00,787.000000,,2013-07-02 16:22:00,
2013-07-02 11:32:00,86.0,60.0,-100.00,East,96,3.0,9.0,42,0.00,,,0.00,940.000000,,2013-07-02 16:32:00,
2013-07-02 12:02:00,86.0,60.0,-100.00,East,96,3.0,9.0,42,0.00,,,0.00,940.000000,,2013-07-02 17:02:00,
2013-07-02 12:12:00,86.0,60.0,-100.00,East,96,3.0,9.0,42,0.00,,,0.00,940.000000,,2013-07-02 17:12:00,
2013-07-02 12:22:00,86.0,60.0,-100.00,East,96,3.0,9.0,42,0.00,,,0.00,940.000000,,2013-07-02 17:22:00,
2013-07-02 12:32:00,87.0,58.0,-100.00,NNE,25,4.0,9.0,38,0.00,,,0.00,1048.000000,,2013-07-02 17:32:00,
2013-07-02 13:02:00,87.0,58.0,-100.00,NNE,25,4.0,9.0,38,0.00,,,0.00,1048.000000,,2013-07-02 18:02:00,
2013-07-02 13:12:00,87.0,58.0,-100.00,NNE,25,4.0,9.0,38,0.00,,,0.00,1048.000000,,2013-07-02 18:12:00,
2013-07-02 13:23:00,87.0,58.0,-100.00,NNE,25,4.0,9.0,38,0.00,,,0.00,1048.000000,,2013-07-02 18:23:00,
2013-07-02 13:32:00,87.0,58.0,-100.00,NE,36,5.0,9.0,37,0.00,,,0.00,782.000000,,2013-07-02 18:32:00,
2013-07-02 14:01:00,87.0,58.0,-100.00,NE,36,5.0,9.0,37,0.00,,,0.00,782.000000,,2013-07-02 19:01:00,
2013-07-02 14:12:00,87.0,58.0,-100.00,NE,36,5.0,9.0,37,0.00,,,0.00,782.000000,,2013-07-02 19:12:00,
2013-07-02 14:22:00,87.0,58.0,-100.00,NE,36,5.0,9.0,37,0.00,,,0.00,782.000000,,2013-07-02 19:22:00,
2013-07-02 14:32:00,87.0,55.0,-100.00,NE,47,3.0,9.0,34,0.00,,,0.00,694.000000,,2013-07-02 19:32:00,
2013-07-02 14:53:00,87.0,55.0,-100.00,NE,47,3.0,9.0,34,0.00,,,0.00,694.000000,,2013-07-02 19:53:00,
2013-07-02 15:02:00,87.0,55.0,-100.00,NE,47,3.0,9.0,34,0.00,,,0.00,694.000000,,2013-07-02 20:02:00,
2013-07-02 15:11:00,87.0,55.0,-100.00,NE,47,3.0,9.0,34,0.00,,,0.00,694.000000,,2013-07-02 20:11:00,
2013-07-02 15:22:00,87.0,55.0,-100.00,NE,47,3.0,9.0,34,0.00,,,0.00,694.000000,,2013-07-02 20:22:00,
2013-07-02 15:32:00,87.0,54.0,-100.00,ENE,62,4.0,12.0,33,0.00,,,0.00,801.000000,,2013-07-02 20:32:00,
2013-07-02 16:11:00,87.0,54.0,-100.00,ENE,62,4.0,12.0,33,0.00,,,0.00,801.000000,,2013-07-02 21:11:00,
2013-07-02 16:22:00,87.0,54.0,-100.00,ENE,62,4.0,12.0,33,0.00,,,0.00,801.000000,,2013-07-02 21:22:00,
2013-07-02 16:32:00,89.0,55.0,-100.00,ENE,62,3.0,9.0,32,0.00,,,0.00,543.000000,,2013-07-02 21:32:00,
2013-07-02 16:52:00,89.0,55.0,-100.00,ENE,62,3.0,9.0,32,0.00,,,0.00,543.000000,,2013-07-02 21:52:00,
2013-07-02 17:01:00,89.0,55.0,-100.00,ENE,62,3.0,9.0,32,0.00,,,0.00,543.000000,,2013-07-02 22:01:00,
2013-07-02 17:11:00,89.0,55.0,-100.00,ENE,62,3.0,9.0,32,0.00,,,0.00,543.000000,,2013-07-02 22:11:00,
2013-07-02 17:22:00,89.0,55.0,-100.00,ENE,62,3.0,9.0,32,0.00,,,0.00,543.000000,,2013-07-02 22:22:00,
2013-07-02 17:32:00,87.0,56.0,-100.00,ENE,75,4.0,11.0,35,0.00,,,0.00,429.000000,,2013-07-02 22:32:00,
2013-07-02 17:53:00,87.0,56.0,-100.00,ENE,75,4.0,11.0,35,0.00,,,0.00,429.000000,,2013-07-02 22:53:00,
2013-07-02 18:01:00,87.0,56.0,-100.00,ENE,75,4.0,11.0,35,0.00,,,0.00,429.000000,,2013-07-02 23:01:00,
2013-07-02 18:12:00,87.0,56.0,-100.00,ENE,75,4.0,11.0,35,0.00,,,0.00,429.000000,,2013-07-02 23:12:00,
2013-07-02 18:22:00,87.0,56.0,-100.00,ENE,75,4.0,11.0,35,0.00,,,0.00,429.000000,,2013-07-02 23:22:00,
2013-07-02 18:32:00,82.0,59.0,-100.00,North,356,0.0,10.0,46,0.00,,,0.00,113.000000,,2013-07-02 23:32:00,
2013-07-02 18:52:00,82.0,59.0,-100.00,North,356,0.0,10.0,46,0.00,,,0.00,113.000000,,2013-07-02 23:52:00,
2013-07-02 19:01:00,82.0,59.0,-100.00,North,356,0.0,10.0,46,0.00,,,0.00,113.000000,,2013-07-03 00:01:00,
2013-07-02 19:11:00,82.0,59.0,-100.00,North,356,0.0,10.0,46,0.00,,,0.00,113.000000,,2013-07-03 00:11:00,
2013-07-02 19:22:00,82.0,59.0,-100.00,North,356,0.0,10.0,46,0.00,,,0.00,113.000000,,2013-07-03 00:22:00,
2013-07-02 19:32:00,84.0,59.0,-100.00,NE,40,2.0,5.0,43,0.00,,,0.00,146.000000,,2013-07-03 00:32:00,
2013-07-02 19:52:00,84.0,59.0,-100.00,NE,40,2.0,5.0,43,0.00,,,0.00,146.000000,,2013-07-03 00:52:00,
2013-07-02 20:01:00,84.0,59.0,-100.00,NE,40,2.0,5.0,43,0.00,,,0.00,146.000000,,2013-07-03 01:01:00,
2013-07-02 20:32:00,77.0,59.0,-100.00,NNE,32,2.0,13.0,53,0.00,,,0.00,67.000000,,2013-07-03 01:32:00,
2013-07-02 21:05:00,77.0,59.0,-100.00,NNE,32,2.0,13.0,53,0.00,,,0.00,67.000000,,2013-07-03 02:05:00,
2013-07-02 21:14:00,77.0,59.0,-100.00,NNE,32,2.0,13.0,53,0.00,,,0.00,67.000000,,2013-07-03 02:14:00,
2013-07-02 21:27:00,77.0,59.0,-100.00,NNE,32,2.0,13.0,53,0.00,,,0.00,67.000000,,2013-07-03 02:27:00,
2013-07-02 21:32:00,71.0,61.0,-100.00,WSW,252,0.0,2.0,70,0.00,,,0.00,0.000000,,2013-07-03 02:32:00,
2013-07-02 21:59:00,71.0,61.0,-100.00,WSW,252,0.0,2.0,70,0.00,,,0.00,0.000000,,2013-07-03 02:59:00,
2013-07-02 22:05:00,71.0,61.0,-100.00,WSW,252,0.0,2.0,70,0.00,,,0.00,0.000000,,2013-07-03 03:05:00,
2013-07-02 22:13:00,71.0,61.0,-100.00,WSW,252,0.0,2.0,70,0.00,,,0.00,0.000000,,2013-07-03 03:13:00,
2013-07-02 22:25:00,71.0,61.0,-100.00,WSW,252,0.0,2.0,70,0.00,,,0.00,0.000000,,2013-07-03 03:25:00,
2013-07-02 22:32:00,68.0,60.0,-100.00,South,173,0.0,0.0,76,0.00,,,0.00,0.000000,,2013-07-03 03:32:00,
2013-07-02 22:58:00,68.0,60.0,-100.00,South,173,0.0,0.0,76,0.00,,,0.00,0.000000,,2013-07-03 03:58:00,
2013-07-02 23:01:00,68.0,60.0,-100.00,South,173,0.0,0.0,76,0.00,,,0.00,0.000000,,2013-07-03 04:01:00,
2013-07-02 23:11:00,68.0,60.0,-100.00,South,173,0.0,0.0,76,0.00,,,0.00,0.000000,,2013-07-03 04:11:00,
2013-07-02 23:22:00,68.0,60.0,-100.00,South,173,0.0,0.0,76,0.00,,,0.00,0.000000,,2013-07-03 04:22:00,
2013-07-02 23:32:00,68.0,59.0,-100.00,NNE,33,0.0,2.0,74,0.00,,,0.00,0.000000,,2013-07-03 04:32:00,
2013-07-02 23:52:00,68.0,59.0,-100.00,NNE,33,0.0,2.0,74,0.00,,,0.00,0.000000,,2013-07-03 04:52:00,